Content
SEND FEEDBACK

Daily
Averages
Monthly
Summary
France

LE HAVRE, FRANCE


Home > Europe > France
Elevation: 103 meters     Latitude: 49 31N     Longitude: 000 04E

WEATHER
 
SELECT A DAY
Number of Records: 176,732;   Date Range: 3/4/97 - 8/10/14
 
SHARE

PRINT THIS DATA

[ ← Previous Day ]
WEATHER ALMANAC - 20 FEBRUARY, 2013
[ Next Day → ]
[ °F ]   °C
Weather ElementAverageHighLow
Temperature2.5 °C7 °C (1:30 pm)0 °C (5:00 am)
Dewpoint-0.6 °C2 °C (11:30 am)-3 °C (10:30 pm)
Humidity81.5 %100 % (7:00 am)61 % (3:30 pm)
Barometer1019.3 hPa1021 hPa (8:30 pm)1017.3 hPa (12:30 am)
Wind Speed14.8 km/h25.9 km/h (1:30 pm)
Weather ElementAverage
Visibility6.9 km
Wind DirectionENE (81.5 °)

Weather ElementTotal
Precipitation---
Heating Degree Days14.8 (Base 18.3)
Averaged from 46 records on 20 February, 2013
WEATHER CONDITIONS BREAKOUT
WIND DIRECTION BREAKOUT
WEATHER BY HOUR - 20 FEBRUARY, 2013
[ °F ]   °C
Local TimeTemperatureDewpointHumidityBarometerVisibilityWind DirectionWind SpeedGust SpeedPrecipitationEventsConditions
12:30 AM2 °C-1 °C81 %1017.3 hPa6 kmEast (80°)11.1 km/h
1:30 AM2 °C-1 °C81 %1017.3 hPa6 kmEast (100°)7.4 km/h
2:00 AM2 °C-1 °C81 %1017.9 hPa6 kmEast (100°)7.4 km/h
2:30 AM2 °C-1 °C81 %1017.9 hPa5 kmEast (90°)9.3 km/hMist
3:00 AM1 °C-1 °C87 %1017.9 hPaEast (80°)9.3 km/hMist
3:30 AM1 °C-1 °C87 %1017.9 hPaEast (90°)13 km/hMist
4:00 AM1 °C0 °C93 %1017.9 hPaEast (100°)9.3 km/hMist
4:30 AM1 °C-1 °C87 %1017.9 hPaCalmMist
5:00 AM0 °C-1 °C93 %1017.9 hPa1.9 kmEast (80°)5.6 km/hMist
5:30 AM1 °C0 °C93 %1017.9 hPaEast (80°)9.3 km/hMist
6:00 AM0 °C-1 °C93 %1017.9 hPa2.7 kmEast (80°)9.3 km/hMist
6:30 AM0 °C-1 °C93 %1019 hPa1.6 kmEast (80°)7.4 km/hMist
7:00 AM0 °C0 °C100 %1019 hPa1.6 kmEast (90°)7.4 km/hMist
7:30 AM0 °C-1 °C93 %1019 hPa1.4 kmENE (70°)9.3 km/hMist
8:00 AM0 °C-1 °C93 %1019 hPa1.4 kmEast (80°)9.3 km/hMist
8:30 AM0 °C-1 °C93 %1019 hPa1.1 kmEast (90°)11.1 km/hMist
9:00 AM0 °C0 °C100 %1020 hPa1.4 kmEast (90°)11.1 km/hMist
9:30 AM1 °C0 °C93 %1020 hPa1.6 kmEast (80°)13 km/hMist
10:00 AM0 °C-1 °C93 %1020 hPa1.8 kmEast (80°)13 km/hPartly Cloudy
10:30 AM1 °C0 °C93 %1020 hPa1.9 kmEast (80°)14.8 km/hMist
11:00 AM3 °C1 °C87 %1020 hPaEast (100°)14.8 km/hMist
11:30 AM4 °C2 °C87 %1020 hPa5 kmEast (90°)20.4 km/hPartly Cloudy
12:00 PM5 °C2 °C81 %1020 hPa4.5 kmEast (90°)22.2 km/hMostly Cloudy
12:30 PM6 °C2 °C76 %1020 hPa6.9 kmEast (90°)18.5 km/hPartly Cloudy
1:00 PM6 °C1 °C70 %1020 hPa10 kmEast (80°)22.2 km/hMostly Cloudy
1:30 PM7 °C1 °C66 %1020 hPa10 kmEast (80°)25.9 km/hOvercast
2:00 PM7 °C1 °C66 %1019 hPa10 kmEast (100°)22.2 km/hMostly Cloudy
2:30 PM6 °C1 °C70 %1020 hPa10 kmENE (70°)24.1 km/hScattered Clouds
3:00 PM6 °C0 °C66 %1019 hPa10 kmEast (80°)20.4 km/hPartly Cloudy
3:30 PM7 °C0 °C61 %1019 hPa10 kmEast (90°)18.5 km/hMostly Cloudy
4:00 PM7 °C0 °C61 %1019 hPa10 kmEast (90°)18.5 km/hPartly Cloudy
4:30 PM6 °C0 °C66 %1019 hPa10 kmENE (70°)20.4 km/hPartly Cloudy
5:00 PM6 °C0 °C66 %1019 hPa10 kmENE (70°)22.2 km/hPartly Cloudy
5:30 PM5 °C0 °C70 %1019 hPa10 kmENE (70°)22.2 km/h
6:00 PM4 °C0 °C75 %1019 hPa10 kmENE (70°)20.4 km/h
6:30 PM4 °C-1 °C70 %1019 hPa10 kmENE (70°)18.5 km/h
7:00 PM3 °C-1 °C75 %1020 hPa10 kmEast (80°)18.5 km/h
7:30 PM2 °C-1 °C81 %1020 hPa10 kmEast (80°)16.7 km/h
8:00 PM2 °C-2 °C75 %1020 hPa10 kmEast (90°)16.7 km/h
8:30 PM1 °C-2 °C81 %1021 hPa10 kmEast (90°)14.8 km/h
9:00 PM1 °C-2 °C81 %1021 hPa10 kmEast (80°)14.8 km/h
9:30 PM1 °C-2 °C81 %1021 hPa10 kmEast (80°)11.1 km/h
10:00 PM0 °C-2 °C87 %1021 hPa10 kmEast (80°)13 km/h
10:30 PM0 °C-3 °C80 %1021 hPa10 kmEast (80°)14.8 km/h
11:00 PM0 °C-3 °C80 %1020 hPa10 kmEast (80°)18.5 km/h
11:30 PM0 °C-3 °C80 %1020 hPa10 kmEast (80°)20.4 km/h
Hourly data recorded from LFOH, located 0 kilometers away from Le Havre, France







STORIES FROM OUR PARTNERS